TimePST,TemperatureF,Dew PointF,Humidity,Sea Level PressureIn,VisibilityMPH,Wind Direction,Wind SpeedMPH,Gust SpeedMPH,PrecipitationIn,Events,Conditions,WindDirDegrees,DateUTC
12:53 AM,48.9,45.0,86,29.85,8.0,West,3.5,-,0.02,Rain,Light Rain,260,2013-03-08 08:53:00
1:39 AM,48.2,44.6,87,29.82,10.0,WSW,6.9,-,0.00,,Overcast,250,2013-03-08 09:39:00
1:53 AM,48.0,45.0,89,29.82,10.0,West,8.1,-,0.00,,Overcast,260,2013-03-08 09:53:00
2:07 AM,46.4,44.6,93,29.81,10.0,West,9.2,-,N/A,,Overcast,260,2013-03-08 10:07:00
2:32 AM,46.4,44.6,93,29.80,10.0,West,10.4,-,0.00,Rain,Light Rain,260,2013-03-08 10:32:00
2:42 AM,46.4,44.6,93,29.80,10.0,WSW,8.1,-,0.00,Rain,Light Rain,240,2013-03-08 10:42:00
2:53 AM,46.9,44.1,90,29.81,9.0,WSW,10.4,-,0.01,Rain,Light Rain,240,2013-03-08 10:53:00
3:35 AM,44.6,44.6,100,29.79,7.0,West,11.5,-,0.05,Rain,Light Rain,270,2013-03-08 11:35:00
3:53 AM,45.0,44.1,97,29.80,7.0,West,11.5,-,0.08,Rain,Light Rain,270,2013-03-08 11:53:00
4:49 AM,44.6,42.8,93,29.80,10.0,West,8.1,-,0.04,Rain,Light Rain,270,2013-03-08 12:49:00
4:53 AM,45.0,43.0,93,29.81,8.0,West,6.9,-,0.04,Rain,Light Rain,270,2013-03-08 12:53:00
5:15 AM,44.6,42.8,93,29.80,6.0,West,8.1,-,0.03,Rain,Light Rain,260,2013-03-08 13:15:00
5:53 AM,45.0,43.0,93,29.83,8.0,WSW,5.8,-,0.05,Rain,Light Rain,250,2013-03-08 13:53:00
6:53 AM,45.0,43.0,93,29.85,7.0,WSW,5.8,-,0.04,Rain,Light Rain,240,2013-03-08 14:53:00
7:07 AM,44.6,42.8,93,29.85,5.0,SW,6.9,-,0.02,Rain,Light Rain,230,2013-03-08 15:07:00
7:50 AM,44.6,42.8,93,29.87,4.0,WSW,6.9,-,0.09,Rain,Rain,240,2013-03-08 15:50:00
7:53 AM,45.0,43.0,93,29.88,4.0,SW,9.2,-,0.10,Rain,Light Rain,230,2013-03-08 15:53:00
8:53 AM,46.0,44.1,93,29.89,8.0,WSW,5.8,-,0.05,Rain,Light Rain,240,2013-03-08 16:53:00
9:20 AM,46.4,44.6,93,29.90,9.0,WSW,5.8,-,0.01,Rain,Light Rain,240,2013-03-08 17:20:00
9:53 AM,46.9,45.0,93,29.92,9.0,WSW,5.8,-,0.01,Rain,Light Rain,240,2013-03-08 17:53:00
10:05 AM,46.4,44.6,93,29.91,8.0,WSW,5.8,-,0.01,Rain,Light Rain,240,2013-03-08 18:05:00
10:53 AM,48.0,45.0,89,29.94,10.0,West,6.9,-,0.01,,Overcast,270,2013-03-08 18:53:00
11:16 AM,48.2,46.4,93,29.93,10.0,West,6.9,-,N/A,,Overcast,270,2013-03-08 19:16:00
11:26 AM,48.2,44.6,87,29.93,10.0,WSW,6.9,-,N/A,,Overcast,250,2013-03-08 19:26:00
11:36 AM,48.2,44.6,87,29.93,10.0,West,8.1,-,N/A,,Overcast,270,2013-03-08 19:36:00
11:48 AM,48.2,44.6,87,29.93,10.0,West,6.9,-,N/A,,Overcast,260,2013-03-08 19:48:00
11:53 AM,48.9,44.1,83,29.94,10.0,West,6.9,-,N/A,,Overcast,260,2013-03-08 19:53:00
12:45 PM,51.8,42.8,71,29.92,10.0,South,3.5,-,N/A,,Overcast,170,2013-03-08 20:45:00
12:53 PM,51.1,44.1,77,29.93,10.0,SSE,4.6,-,N/A,,Overcast,160,2013-03-08 20:53:00
1:44 PM,50.0,46.4,87,29.91,10.0,ESE,10.4,-,N/A,,Overcast,120,2013-03-08 21:44:00
1:53 PM,48.9,46.0,90,29.93,10.0,ESE,8.1,-,N/A,,Overcast,120,2013-03-08 21:53:00
2:20 PM,50.0,46.4,87,29.92,10.0,SE,9.2,-,N/A,,Overcast,130,2013-03-08 22:20:00
2:53 PM,51.1,46.9,86,29.93,10.0,ESE,6.9,-,N/A,,Overcast,120,2013-03-08 22:53:00
3:53 PM,53.1,46.0,77,29.93,10.0,ESE,8.1,-,N/A,,Partly Cloudy,120,2013-03-08 23:53:00
4:12 PM,51.8,46.4,82,29.92,10.0,ESE,9.2,-,N/A,,Mostly Cloudy,120,2013-03-09 00:12:00
4:26 PM,51.8,46.4,82,29.92,10.0,ESE,9.2,-,N/A,,Mostly Cloudy,120,2013-03-09 00:26:00
4:53 PM,50.0,45.0,83,29.94,10.0,ESE,9.2,-,N/A,,Mostly Cloudy,120,2013-03-09 00:53:00
5:12 PM,48.2,44.6,87,29.94,10.0,ESE,9.2,-,N/A,,Mostly Cloudy,120,2013-03-09 01:12:00
5:53 PM,48.0,44.1,86,29.96,10.0,ESE,6.9,-,N/A,,Partly Cloudy,110,2013-03-09 01:53:00
6:53 PM,46.9,44.1,90,29.99,10.0,ESE,5.8,-,N/A,,Overcast,110,2013-03-09 02:53:00
7:53 PM,46.9,44.1,90,30.01,10.0,SSE,4.6,-,N/A,,Overcast,160,2013-03-09 03:53:00
8:53 PM,46.9,45.0,93,30.03,6.0,Calm,Calm,-,0.03,Rain,Light Rain,0,2013-03-09 04:53:00
9:53 PM,46.9,44.1,90,30.06,9.0,ENE,3.5,-,0.00,,Mostly Cloudy,70,2013-03-09 05:53:00
10:10 PM,46.4,44.6,93,30.05,8.0,ENE,5.8,-,N/A,,Mostly Cloudy,70,2013-03-09 06:10:00
10:45 PM,46.4,44.6,93,30.05,10.0,ESE,4.6,-,N/A,,Overcast,110,2013-03-09 06:45:00
10:53 PM,46.0,44.1,93,30.06,10.0,SSE,4.6,-,N/A,,Overcast,160,2013-03-09 06:53:00
11:53 PM,46.0,44.1,93,30.07,9.0,Calm,Calm,-,N/A,,Overcast,0,2013-03-09 07:53:00